When you browse on this site, cookies collect data to enhance your experience and personalize the content and advertising you see.
Visit our Privacy Policy to learn more. By continuing to use the site, you agree to this use of cookies and data.
  • In Hungary
  • List of Countries
  • For 7 days
  • Water Temperature
  • Weather Map
  • News
  • Weather Widgets
  • user-avatar
    Login

    Hourly Weather Pestuny

    Today, 7 December, Saturday

    Time Temperature Precipitation Wind Pressure Humidity
    00:00 -1°C° 0.1 mm 5 mps 739 mmHg 87%
    01:00 -1°C° 0.1 mm 5 mps 739 mmHg 88%
    02:00 -1°C° 0.1 mm 5 mps 739 mmHg 89%
    03:00 -1°C° 0.2 mm 5 mps 738 mmHg 90%
    04:00 -2°C° 0.2 mm 5 mps 738 mmHg 91%
    05:00 -2°C° 0.2 mm 5 mps 737 mmHg 92%
    06:00 -2°C° 0.3 mm 5 mps 737 mmHg 92%
    07:00 -2°C° 0.3 mm 5 mps 737 mmHg 91%
    08:00 -2°C° 0.3 mm 5 mps 737 mmHg 91%
    09:00 -2°C° 0.2 mm 5 mps 737 mmHg 89%
    10:00 -2°C° 0.2 mm 5 mps 736 mmHg 88%
    11:00 -3°C° 0.2 mm 6 mps 736 mmHg 86%
    12:00 -3°C° 0 mm 6 mps 735 mmHg 84%
    13:00 -2°C° 0 mm 6 mps 735 mmHg 82%
    14:00 -2°C° 0 mm 6 mps 735 mmHg 80%
    15:00 -2°C° 0.1 mm 6 mps 734 mmHg 82%
    16:00 -2°C° 0.1 mm 6 mps 734 mmHg 83%
    17:00 -2°C° 0.1 mm 7 mps 733 mmHg 85%
    18:00 -2°C° 0.1 mm 7 mps 733 mmHg 87%
    19:00 -1°C° 0.1 mm 7 mps 732 mmHg 88%
    20:00 -1°C° 0.1 mm 7 mps 732 mmHg 90%
    21:00 0°C° 0.2 mm 7 mps 732 mmHg 90%
    22:00 +1°C° 0.2 mm 8 mps 731 mmHg 89%
    23:00 +1°C° 0.2 mm 8 mps 731 mmHg 89%

    Tomorrow, 8 December, Sunday

    Time Temperature Precipitation Wind Pressure Humidity
    00:00 +2°C° 0 mm 7 mps 731 mmHg 87%
    01:00 0°C° 0 mm 7 mps 732 mmHg 84%
    02:00 0°C° 0 mm 7 mps 732 mmHg 82%
    03:00 -1°C° 0 mm 7 mps 732 mmHg 82%
    04:00 -1°C° 0 mm 7 mps 732 mmHg 83%
    05:00 -1°C° 0 mm 7 mps 732 mmHg 83%
    06:00 -1°C° 0 mm 7 mps 733 mmHg 84%
    07:00 -1°C° 0 mm 7 mps 734 mmHg 85%
    08:00 -1°C° 0 mm 6 mps 735 mmHg 86%
    09:00 -1°C° 0 mm 6 mps 736 mmHg 85%
    10:00 -1°C° 0 mm 6 mps 736 mmHg 84%
    11:00 -1°C° 0 mm 6 mps 736 mmHg 83%
    12:00 0°C° 0 mm 5 mps 737 mmHg 83%
    13:00 0°C° 0 mm 5 mps 737 mmHg 83%
    14:00 0°C° 0 mm 5 mps 737 mmHg 83%
    15:00 0°C° 0 mm 5 mps 736 mmHg 86%
    16:00 -1°C° 0 mm 6 mps 736 mmHg 90%
    17:00 -1°C° 0 mm 6 mps 736 mmHg 94%
    18:00 +1°C° 0.3 mm 6 mps 735 mmHg 94%
    19:00 +1°C° 0.3 mm 6 mps 735 mmHg 94%
    20:00 +1°C° 0.3 mm 6 mps 735 mmHg 94%
    21:00 +2°C° 0.3 mm 6 mps 735 mmHg 91%
    22:00 +2°C° 0.3 mm 7 mps 734 mmHg 88%
    23:00 +2°C° 0.3 mm 7 mps 734 mmHg 85%

    Day after tomorrow, 9 December, Monday

    Time Temperature Precipitation Wind Pressure Humidity
    00:00 +2°C° 0.1 mm 7 mps 733 mmHg 86%
    01:00 +2°C° 0.1 mm 7 mps 733 mmHg 87%
    02:00 +2°C° 0.1 mm 7 mps 733 mmHg 88%
    03:00 +2°C° 0.1 mm 7 mps 733 mmHg 88%
    04:00 +2°C° 0.1 mm 7 mps 732 mmHg 89%
    05:00 +2°C° 0.1 mm 7 mps 732 mmHg 89%
    06:00 +3°C° 0.2 mm 7 mps 732 mmHg 89%
    07:00 +3°C° 0.2 mm 7 mps 732 mmHg 90%
    08:00 +3°C° 0.2 mm 7 mps 732 mmHg 90%
    09:00 +4°C° 0 mm 7 mps 732 mmHg 89%
    10:00 +4°C° 0 mm 6 mps 732 mmHg 88%
    11:00 +4°C° 0 mm 6 mps 733 mmHg 87%
    12:00 +4°C° 0.3 mm 6 mps 733 mmHg 87%
    13:00 +5°C° 0.3 mm 5 mps 733 mmHg 87%
    14:00 +5°C° 0.3 mm 5 mps 733 mmHg 87%
    15:00 +3°C° 0 mm 5 mps 733 mmHg 88%
    16:00 +4°C° 0 mm 4 mps 733 mmHg 89%
    17:00 +4°C° 0 mm 4 mps 734 mmHg 90%
    18:00 +4°C° 0 mm 4 mps 734 mmHg 91%
    19:00 +3°C° 0 mm 4 mps 734 mmHg 92%
    20:00 +3°C° 0 mm 3 mps 735 mmHg 93%
    21:00 +3°C° 0 mm 3 mps 735 mmHg 94%
    22:00 +2°C° 0 mm 3 mps 735 mmHg 94%
    23:00 +1°C° 0 mm 3 mps 736 mmHg 95%

    10 December, Tuesday

    Time Temperature Precipitation Wind Pressure Humidity
    00:00 +1°C° 0 mm 3 mps 736 mmHg 95%
    01:00 +2°C° 0 mm 2 mps 737 mmHg 95%
    02:00 +2°C° 0 mm 2 mps 737 mmHg 95%
    03:00 +1°C° 0 mm 2 mps 737 mmHg 95%
    04:00 +1°C° 0 mm 2 mps 737 mmHg 95%
    05:00 +1°C° 0 mm 2 mps 738 mmHg 96%
    06:00 +1°C° 0 mm 2 mps 738 mmHg 95%
    07:00 +1°C° 0 mm 2 mps 738 mmHg 95%
    08:00 +2°C° 0 mm 2 mps 738 mmHg 95%
    09:00 +2°C° 0.1 mm 2 mps 739 mmHg 95%
    10:00 +2°C° 0.1 mm 2 mps 739 mmHg 96%
    11:00 +3°C° 0.1 mm 2 mps 739 mmHg 96%
    12:00 +3°C° 0.3 mm 2 mps 739 mmHg 96%
    13:00 +3°C° 0.3 mm 2 mps 739 mmHg 97%
    14:00 +3°C° 0.3 mm 2 mps 739 mmHg 97%
    15:00 +3°C° 0.1 mm 2 mps 739 mmHg 96%
    16:00 +3°C° 0.1 mm 2 mps 739 mmHg 96%
    17:00 +2°C° 0.1 mm 3 mps 739 mmHg 95%
    18:00 +2°C° 0 mm 3 mps 739 mmHg 95%
    19:00 +2°C° 0 mm 3 mps 740 mmHg 94%
    20:00 +2°C° 0 mm 3 mps 740 mmHg 93%
    21:00 +2°C° 0.2 mm 3 mps 740 mmHg 94%
    22:00 +2°C° 0.2 mm 3 mps 741 mmHg 95%
    23:00 +1°C° 0.2 mm 4 mps 741 mmHg 96%

    11 December, Wednesday

    Time Temperature Precipitation Wind Pressure Humidity
    00:00 -1°C° 0.5 mm 5 mps 742 mmHg 94%
    01:00 -3°C° 0.5 mm 6 mps 742 mmHg 93%
    02:00 -4°C° 0.5 mm 7 mps 742 mmHg 92%
    03:00 -4°C° 0.1 mm 6 mps 743 mmHg 87%
    04:00 -4°C° 0.1 mm 5 mps 744 mmHg 83%
    05:00 -4°C° 0.1 mm 4 mps 745 mmHg 78%
    06:00 -4°C° 0 mm 4 mps 745 mmHg 81%
    07:00 -4°C° 0 mm 4 mps 746 mmHg 84%
    08:00 -4°C° 0 mm 4 mps 746 mmHg 86%
    09:00 -4°C° 0 mm 4 mps 747 mmHg 82%
    10:00 -4°C° 0 mm 5 mps 747 mmHg 78%
    11:00 -4°C° 0 mm 5 mps 748 mmHg 74%
    12:00 -4°C° 0 mm 5 mps 748 mmHg 73%
    13:00 -3°C° 0 mm 4 mps 748 mmHg 73%
    14:00 -3°C° 0 mm 4 mps 748 mmHg 72%
    15:00 -3°C° 0 mm 4 mps 749 mmHg 75%
    16:00 -4°C° 0 mm 3 mps 749 mmHg 78%
    17:00 -3°C° 0 mm 2 mps 750 mmHg 80%
    18:00 -3°C° 0 mm 2 mps 750 mmHg 83%
    19:00 -2°C° 0 mm 1 mps 750 mmHg 85%
    20:00 -2°C° 0 mm 1 mps 750 mmHg 87%
    21:00 -2°C° 0 mm 1 mps 751 mmHg 87%
    22:00 -3°C° 0 mm 0 mps 751 mmHg 86%
    23:00 -3°C° 0 mm 0 mps 751 mmHg 86%

    12 December, Thursday

    Time Temperature Precipitation Wind Pressure Humidity
    00:00 -3°C° 0 mm 0 mps 751 mmHg 85%
    01:00 -3°C° 0 mm 0 mps 751 mmHg 84%
    02:00 -2°C° 0 mm 1 mps 751 mmHg 83%
    03:00 -2°C° 0 mm 1 mps 751 mmHg 83%
    04:00 -2°C° 0 mm 1 mps 751 mmHg 83%
    05:00 -2°C° 0 mm 1 mps 751 mmHg 82%
    06:00 -4°C° 0 mm 2 mps 750 mmHg 81%
    07:00 -4°C° 0 mm 2 mps 750 mmHg 81%
    08:00 -4°C° 0 mm 2 mps 750 mmHg 80%
    09:00 -4°C° 0 mm 2 mps 750 mmHg 77%
    10:00 -4°C° 0 mm 2 mps 750 mmHg 75%
    11:00 -3°C° 0 mm 2 mps 750 mmHg 73%
    12:00 -3°C° 0 mm 2 mps 750 mmHg 71%
    13:00 -3°C° 0 mm 2 mps 749 mmHg 70%
    14:00 -3°C° 0 mm 2 mps 749 mmHg 68%
    15:00 -3°C° 0 mm 2 mps 749 mmHg 71%
    16:00 -4°C° 0 mm 2 mps 749 mmHg 73%
    17:00 -5°C° 0 mm 2 mps 748 mmHg 76%
    18:00 -5°C° 0 mm 2 mps 748 mmHg 76%
    19:00 -5°C° 0 mm 2 mps 748 mmHg 76%
    20:00 -5°C° 0 mm 2 mps 748 mmHg 76%
    21:00 -5°C° 0 mm 2 mps 748 mmHg 77%
    22:00 -5°C° 0 mm 2 mps 748 mmHg 77%
    23:00 -5°C° 0 mm 2 mps 748 mmHg 78%
    Show more